sat.trackr.live / text

‹ back to catalog

STARLINK-34317

NORAD 64162 · 2025-112S

PAYLOAD ACTIVE UNKNOWN

§ Identity

Operator
Country
US
Launch date
2025-05-27
Launch site
AFWTR
Launch vehicle
Mass (kg)
RCS (m²)

Purposes: comms

External: N2YO · Heavens-Above · Gunter

§ Orbital elements

Epoch: 2026-05-25T02:58:06.817728Z

Period
95.64 min
Inclination
97.4468°
Eccentricity
0.0002446
Mean motion
15.05658741 rev/d
Perigee alt
547.8 km
Apogee alt
551.2 km
Semi-major
6,927.6 km
B*
1.1475e-4
RAAN
196.5630°
Arg perigee
104.9776°
Mean anomaly
255.1722°
Rev number
5,481

§ Raw data

STARLINK-343171 64162U 25112S   26145.12369002  .00001598  00000+0  11475-3 0  99942 64162  97.4468 196.5630 0002446 104.9776 255.1722 15.05658741 54813

JSON: /api/v1/satellites/64162 · /tle

For live sub-satellite position, see the globe view (requires WebGL).

§ Visibility from observer

Set your observer location to see the next 7 days of passes ≥ 10°. The values pass through the URL so the page stays shareable.

No JS? Fill the form by hand. The geolocation button needs JavaScript.